Simultaneous Nadir Overpasses (SNOs) Predictions

Prediction of SNOs between AQUA and TERRA Satellite Orbit:

Table of predicted SNOs for the next 14.0 days since TLE Epoch: 8/26/2022
Index Date (AQUA) Time (AQUA) Lat,Lon (AQUA) SZA (AQUA ) Date (TERRA) Time (TERRA) Lat,Lon (TERRA) SZA (TERRA ) Distance(km) Time Diff (sec)
1 09/08/2022 07:58:26 -70.67,-118.81 115.08 09/08/2022 07:57:21 -70.68,-121.47 115.08 97.89 65
2 09/08/2022 09:37:19 -70.72,-143.60 115.01 09/08/2022 09:36:13 -70.73,-146.11 115.00 92.01 66
3 09/08/2022 11:16:12 -70.78,-168.40 114.93 09/08/2022 11:15:06 -70.73,-170.84 114.98 89.43 66
4 09/08/2022 12:05:37 70.69, -0.62 65.00 09/08/2022 12:04:32 70.66, -3.29 64.98 98.26 65
5 09/08/2022 12:55:04 -70.78, 166.89 114.90 09/08/2022 12:53:58 -70.78, 164.52 114.90 86.55 66
6 09/08/2022 13:44:29 70.68, -25.34 65.02 09/08/2022 13:43:24 70.71, -27.93 65.05 95.54 65
7 09/08/2022 14:33:57 -70.83, 142.09 114.82 09/08/2022 14:32:50 -70.83, 139.88 114.82 80.67 67
8 09/08/2022 15:23:22 70.74, -50.13 65.10 09/08/2022 15:22:16 70.76, -52.58 65.13 89.63 66
9 09/08/2022 16:12:50 -70.88, 117.29 114.75 09/08/2022 16:11:43 -70.83, 115.15 114.80 78.14 67
10 09/08/2022 17:02:15 70.79, -74.93 65.18 09/08/2022 17:01:09 70.76, -77.30 65.15 86.89 66
11 09/08/2022 17:51:42 -70.88, 92.58 114.72 09/08/2022 17:50:35 -70.88, 90.51 114.72 75.22 67
12 09/08/2022 18:41:07 70.79, -99.65 65.21 09/08/2022 18:40:01 70.81,-101.94 65.23 84.14 66
13 09/08/2022 19:30:35 -70.93, 67.78 114.64 09/08/2022 19:29:27 -70.93, 65.87 114.64 69.34 68
14 09/08/2022 20:20:00 70.84,-124.44 65.28 09/08/2022 20:18:53 70.86,-126.59 65.31 78.24 67
15 09/08/2022 21:09:27 -70.93, 43.06 114.62 09/08/2022 21:08:20 -70.93, 41.14 114.62 69.77 67
16 09/08/2022 21:58:53 70.89,-149.24 65.36 09/08/2022 21:57:46 70.86,-151.31 65.33 75.52 67
17 09/08/2022 22:48:20 -70.98, 18.27 114.54 09/08/2022 22:47:12 -70.98, 16.50 114.54 63.89 68
18 09/08/2022 23:37:45 70.89,-173.96 65.39 09/08/2022 23:36:38 70.91,-175.95 65.41 72.75 67
19 09/09/2022 00:27:13 -71.04, -6.53 114.46 09/09/2022 00:26:04 -71.03, -8.14 114.47 58.01 69
20 09/09/2022 01:16:38 70.95, 161.25 65.47 09/09/2022 01:15:30 70.97, 159.40 65.49 66.84 68
21 09/09/2022 02:06:05 -71.03, -31.25 114.44 09/09/2022 02:04:57 -71.03, -32.86 114.44 58.43 68
22 09/09/2022 02:55:31 71.00, 136.45 65.54 09/09/2022 02:54:23 70.96, 134.68 65.51 64.17 68



Historial Predications of SNOs between AQUA and TERRA
